Weather History for KTTA - January, 2012

Change the Weather History Date:

Friday, January 13, 2012

  Actual Average (KRDU) Record (KRDU)
Temperature  
Mean Temperature 44 °F 41 °F  
Max Temperature 55 °F 50 °F 78 °F (2005)
Min Temperature 32 °F 31 °F 4 °F (1981)
Degree Days  
Heating Degree Days 22 24  
Month to date heating degree days 318  
Since 1 July heating degree days 1569  
Cooling Degree Days 0 0  
Month to date cooling degree days 0  
Year to date cooling degree days 0  
Moisture  
Dew Point 22 °F    
Average Humidity 52    
Maximum Humidity 77    
Minimum Humidity 39    
Precipitation  
Precipitation 0.00 in 0.12 in 1.45 in (1948)
Month to date precipitation 1.46  
Year to date precipitation 1.46  
Snow  
Snow 0.00 in 0.10 in 10.00 in (1933)
Month to date snowfall 1.0  
Since 1 July snowfall 1.7  
Snow Depth -    
Sea Level Pressure  
Sea Level Pressure 29.85 in    
Wind  
Wind Speed 13 mph (WSW)    
Max Wind Speed 23 mph    
Max Gust Speed 34 mph    
Visibility 10 miles    
Events      
T = Trace of Precipitation, MM = Missing Value Source: NWS Daily Summary

Daily Weather History Graph

Daily Weather History Graph

Search for Another Location

Airport or City:

Trip Planner

Search our weather history database for the weather conditions in past years. The results will help you decide how hot, cold, wet, or windy it might be!

Date:

Astronomy

Jan. 13, 2012 Rise Set
Actual Time 7:25 AM EST 5:24 PM EST
Civil Twilight 6:58 AM EST 5:52 PM EST
Nautical Twilight 6:26 AM EST 6:23 PM EST
Astronomical Twilight 5:55 AM EST 6:54 PM EST
Moon 10:22 PM EST (1/13) 9:50 AM EST (1/13)
Length of Visible Light 10h 54m
Length of Day
9h 58m
Waning Gibbous, 79% of the Moon is Illuminated
Jan 13
Waning Gibbous
Jan 16
Last Quarter
Jan 23
New
Jan 30
First Quarter
Feb 7
Full

Hourly Weather History & Observations

Time (EST) Temp. Windchill Dew Point Humidity Pressure Visibility Wind Dir Wind Speed Gust Speed Precip Events Conditions
12:15 AM 53.6 °F - 46.4 °F 77% 29.54 in 10.0 mi SSW 12.7 mph 21.9 mph N/A   Clear
12:35 AM 55.4 °F - 44.6 °F 67% 29.54 in 10.0 mi SSW 13.8 mph 26.5 mph N/A   Clear
12:55 AM 53.6 °F - 44.6 °F 72% 29.55 in 10.0 mi SSW 18.4 mph 28.8 mph N/A   Scattered Clouds
1:15 AM 53.6 °F - 42.8 °F 67% 29.55 in 10.0 mi SW 15.0 mph 24.2 mph N/A   Scattered Clouds
2:15 AM 46.4 °F 38.7 °F 30.2 °F 53% 29.63 in 10.0 mi WSW 20.7 mph 33.4 mph N/A   Scattered Clouds
2:35 AM 42.8 °F 34.8 °F 26.6 °F 53% 29.66 in 10.0 mi SW 17.3 mph 33.4 mph N/A   Clear
2:55 AM 42.8 °F 34.0 °F 26.6 °F 53% 29.68 in 10.0 mi SW 20.7 mph 28.8 mph N/A   Clear
3:15 AM 41.0 °F 31.1 °F 26.6 °F 57% 29.70 in 10.0 mi WSW 23.0 mph 34.5 mph N/A   Scattered Clouds
3:35 AM 41.0 °F 32.2 °F 26.6 °F 57% 29.71 in 10.0 mi WSW 18.4 mph 25.3 mph N/A   Mostly Cloudy
3:55 AM 39.2 °F 30.2 °F 24.8 °F 56% 29.72 in 10.0 mi SW 17.3 mph 27.6 mph N/A   Mostly Cloudy
4:15 AM 37.4 °F 28.9 °F 24.8 °F 60% 29.73 in 10.0 mi SW 13.8 mph 18.4 mph N/A   Scattered Clouds
4:35 AM 37.4 °F 29.8 °F 24.8 °F 60% 29.75 in 10.0 mi SW 11.5 mph 19.6 mph N/A   Clear
4:55 AM 37.4 °F 31.4 °F 23.0 °F 56% 29.77 in 10.0 mi WSW 8.1 mph - N/A   Clear
5:15 AM 35.6 °F 28.6 °F 21.2 °F 56% 29.78 in 10.0 mi WSW 9.2 mph 19.6 mph N/A   Clear
5:35 AM 35.6 °F 27.5 °F 17.6 °F 48% 29.80 in 10.0 mi WSW 11.5 mph 18.4 mph N/A   Clear
5:55 AM 35.6 °F 27.1 °F 15.8 °F 44% 29.81 in 10.0 mi West 12.7 mph 24.2 mph N/A   Clear
6:15 AM 33.8 °F 26.4 °F 15.8 °F 48% 29.83 in 10.0 mi WSW 9.2 mph 19.6 mph N/A   Clear
6:35 AM 33.8 °F 28.6 °F 17.6 °F 52% 29.83 in 10.0 mi WSW 5.8 mph - N/A   Clear
6:55 AM 33.8 °F 24.8 °F 17.6 °F 52% 29.84 in 10.0 mi SW 12.7 mph 19.6 mph N/A   Clear
7:15 AM 33.8 °F 28.6 °F 17.6 °F 52% 29.85 in 10.0 mi SW 5.8 mph - N/A   Clear
7:55 AM 32.0 °F 23.6 °F 17.6 °F 55% 29.86 in 10.0 mi SW 10.4 mph 18.4 mph N/A   Clear
8:15 AM 32.0 °F 22.5 °F 17.6 °F 55% 29.87 in 10.0 mi SW 12.7 mph 18.4 mph N/A   Clear
8:35 AM 32.0 °F 24.2 °F 17.6 °F 55% 29.88 in 10.0 mi SW 9.2 mph 16.1 mph N/A   Clear
8:55 AM 33.8 °F 24.8 °F 17.6 °F 52% 29.89 in 10.0 mi SW 12.7 mph 19.6 mph N/A   Clear
9:15 AM 33.8 °F 25.3 °F 17.6 °F 52% 29.90 in 10.0 mi SW 11.5 mph 19.6 mph N/A   Clear
9:35 AM 33.8 °F 24.3 °F 19.4 °F 56% 29.91 in 10.0 mi WSW 13.8 mph 25.3 mph N/A   Clear
9:55 AM 35.6 °F 25.9 °F 19.4 °F 52% 29.92 in 10.0 mi WSW 16.1 mph 24.2 mph N/A   Clear
10:15 AM 35.6 °F 26.6 °F 19.4 °F 52% 29.93 in 10.0 mi WSW 13.8 mph 20.7 mph N/A   Clear
10:35 AM 35.6 °F 25.5 °F 19.4 °F 52% 29.94 in 10.0 mi WSW 17.3 mph 21.9 mph N/A   Clear
11:15 AM 37.4 °F 28.9 °F 19.4 °F 48% 29.94 in 10.0 mi WSW 13.8 mph 24.2 mph N/A   Clear
11:35 AM 37.4 °F 28.9 °F 19.4 °F 48% 29.93 in 10.0 mi West 13.8 mph 19.6 mph N/A   Clear
11:55 AM 39.2 °F 31.2 °F 19.4 °F 45% 29.93 in 10.0 mi WSW 13.8 mph 19.6 mph N/A   Clear
12:15 PM 39.2 °F 32.5 °F 19.4 °F 45% 29.92 in 10.0 mi West 10.4 mph 16.1 mph N/A   Clear
12:35 PM 41.0 °F 33.9 °F 19.4 °F 42% 29.91 in 10.0 mi WSW 12.7 mph 21.9 mph N/A   Clear
12:55 PM 41.0 °F 32.5 °F 17.6 °F 39% 29.92 in 10.0 mi West 17.3 mph 25.3 mph N/A   Clear
1:15 PM 41.0 °F 33.1 °F 19.4 °F 42% 29.91 in 10.0 mi WSW 15.0 mph 18.4 mph N/A   Clear
1:35 PM 41.0 °F 33.9 °F 19.4 °F 42% 29.91 in 10.0 mi West 12.7 mph 19.6 mph N/A   Clear
1:55 PM 42.8 °F 37.0 °F 19.4 °F 39% 29.91 in 10.0 mi WSW 10.4 mph 19.6 mph N/A   Clear
2:15 PM 42.8 °F 37.0 °F 19.4 °F 39% 29.92 in 10.0 mi West 10.4 mph 23.0 mph N/A   Clear
2:35 PM 42.8 °F 35.4 °F 19.4 °F 39% 29.92 in 10.0 mi SW 15.0 mph 19.6 mph N/A   Clear
2:55 PM 42.8 °F 35.8 °F 19.4 °F 39% 29.93 in 10.0 mi West 13.8 mph 17.3 mph N/A   Clear
3:15 PM 42.8 °F 37.5 °F 19.4 °F 39% 29.93 in 10.0 mi West 9.2 mph - N/A   Clear
3:35 PM 42.8 °F 37.0 °F 19.4 °F 39% 29.94 in 10.0 mi West 10.4 mph 17.3 mph N/A   Clear
3:55 PM 42.8 °F 37.5 °F 19.4 °F 39% 29.94 in 10.0 mi SW 9.2 mph 20.7 mph N/A   Clear
4:15 PM 42.8 °F 37.5 °F 19.4 °F 39% 29.95 in 10.0 mi SW 9.2 mph - N/A   Clear
4:35 PM 42.8 °F 37.5 °F 19.4 °F 39% 29.95 in 10.0 mi WSW 9.2 mph - N/A   Clear
4:55 PM 41.0 °F 37.1 °F 21.2 °F 45% 29.96 in 10.0 mi SW 5.8 mph - N/A   Clear
5:15 PM 41.0 °F 37.1 °F 21.2 °F 45% 29.97 in 10.0 mi WSW 5.8 mph - N/A   Clear
5:35 PM 39.2 °F 35.0 °F 21.2 °F 49% 29.98 in 10.0 mi WSW 5.8 mph - N/A   Clear
5:55 PM 35.6 °F - 23.0 °F 60% 29.98 in 10.0 mi Calm Calm - N/A   Clear
6:15 PM 35.6 °F 32.8 °F 23.0 °F 60% 29.99 in 10.0 mi SSW 3.5 mph - N/A   Clear
6:35 PM 33.8 °F - 24.8 °F 70% 30.01 in 10.0 mi Calm Calm - N/A   Clear
6:55 PM 33.8 °F - 23.0 °F 65% 30.02 in 10.0 mi Calm Calm - N/A   Clear
7:15 PM 33.8 °F 30.8 °F 24.8 °F 70% 30.02 in 10.0 mi South 3.5 mph - N/A   Clear
7:35 PM 33.8 °F 30.8 °F 23.0 °F 65% 30.03 in 10.0 mi SSW 3.5 mph - N/A   Clear
7:55 PM 33.8 °F 30.8 °F 23.0 °F 65% 30.03 in 10.0 mi SSW 3.5 mph - N/A   Clear
8:15 PM 33.8 °F 30.8 °F 23.0 °F 65% 30.03 in 10.0 mi SW 3.5 mph - N/A   Clear
8:35 PM 35.6 °F - 21.2 °F 56% 30.04 in 10.0 mi Calm Calm - N/A   Clear
8:55 PM 35.6 °F 32.8 °F 21.2 °F 56% 30.04 in 10.0 mi SW 3.5 mph - N/A   Clear
9:15 PM 35.6 °F 32.8 °F 21.2 °F 56% 30.04 in 10.0 mi SW 3.5 mph - N/A   Clear
9:35 PM 35.6 °F 29.9 °F 21.2 °F 56% 30.05 in 10.0 mi WNW 6.9 mph - N/A   Clear
9:55 PM 35.6 °F 30.7 °F 21.2 °F 56% 30.06 in 10.0 mi West 5.8 mph - N/A   Clear
10:15 PM 35.6 °F 30.7 °F 19.4 °F 52% 30.07 in 10.0 mi NW 5.8 mph - N/A   Clear
10:35 PM 33.8 °F 27.7 °F 19.4 °F 56% 30.07 in 10.0 mi WNW 6.9 mph - N/A   Clear
10:55 PM 33.8 °F - 17.6 °F 52% 30.07 in 10.0 mi Calm Calm - N/A   Clear
11:15 PM 33.8 °F - 19.4 °F 56% 30.06 in 10.0 mi Calm Calm - N/A   Clear
11:35 PM 32.0 °F - 21.2 °F 64% 30.06 in 10.0 mi Calm Calm - N/A   Clear
11:55 PM 32.0 °F - 21.2 °F 64% 30.07 in 10.0 mi Calm Calm - N/A   Clear